Location: St. Louis
(38.6270°N, 90.1994°W)
Time: 09:42:48
(UTC-06:00)

SR - Pass Details

Date: 30 November 2021
Orbit: 582 x 872 km, 66.7° (Epoch: 21 January)

Event Time Altitude Azimuth Distance (km) Brightness Sun altitude
Rises 08:48:59 0° 338° (NNW) 2,823 ? 16.3°
Reaches altitude 10° 08:51:16 10° 345° (NNW) 1,935 ? 16.6°
Maximum altitude 08:55:25 44° 58° (ENE) 856 ? 17.1°
Drops below altitude 10° 08:59:47 10° 131° (SE) 2,036 ? 17.7°
Sets 09:02:14 0° 137° (SE) 2,989 ? 18.0°
